Showing default

TIGER-5, 58277

Orbit data source: Space-Track

TIGER-5, 58277 is a payload satellite owned by OQ Tech (RW) in SSO that was launched on Sat, 11 Nov 2023 UTC via an FALCON 9 launch vehicle from the Air Force Western Test Range (AFWTR). Payload-class satellites include a variety of spacecraft equipped with specific instruments for various scientific and technological missions. These include communications satellites like Starlink; space stations such as the ISS; scientific satellites like the Hubble; Earth observation satellites from companies like Planet Labs, Umbra, and HawkEye 360; GPS; miniature CubeSats for education and research; and military/defense satellites.

Not visible in the next 10 days
Identifier
58277, 2023-174X
Orbit
SSO
Country
Flag of RWRW / RWA
Related business
Manufacturer
Space Inventor
Mission
Operational Commercial Communications
Bus & Motor
CUBESAT 6U, Unknown motor
Mass
~10 kg wet, ~10 kg dry
Launch date (UTC)
2023-11-11 (2 years ago)
Launch vehicle
FALCON 9
Launch site
Air Force Western Test Range (AFWTR)
Object type
Payload
Rocket body
Debris
Shape & HBR
Box + 2 Pan, 0.1 m
Radar Cross Section
0.080 m², Medium (>0.1 m² and < 1m²)

Expand to show TLE details & history
Last TLE update: 18 hours ago

TLE from 18 hours ago
0 TIGER-5
1 58277U 23174X   25349.82002157  .00047783  00000-0  60056-3 0  9993
2 58277  97.4003  75.2770 0004040  76.8748 283.2959 15.59543443117628
Epoch: 2025-12-15T19:40Z
TLE epoch observation values (Epoch: 2025-12-15T19:40:49.863Z)
Latitude
-0.00005°
Longitude
55.35614°
Altitude
391.494 km
Speed
7.676 km/s
True Right ascension
05h 01m 06s
True Declination
0° 00' 00"
Sunlit
Object was in full shadow at epoch
Visualization orbit readout
Latitude
Unknown
Longitude
Unknown
Altitude
Unknown
Speed
Unknown
Apparent Right ascension
Unknown
Apparent Declination
Unknown
Sunlit
N/A
Visualization observer readout
Local Sidereal Time
12:38:19
Azimuth
Unknown
Elevation
Unknown
Doppler factor
Unknown
Orbital elements
Apogee altitude
388.623 km
Perigee altitude
383.158 km
Semi-major axis
6,764.028 km
Eccentricity
0.0004
Inclination
97.4003°
RAAN
75.277°
Arg. of periapsis
76.8748°
True anomaly
283.25084°
Mean anomaly
283.2959°
Eccentric anomaly
283.27337°
Mean motion
3.90153 °/min
Orbital period
92.27 mins
BSTAR
0.00060056
Loading maneuver chart data...
Computing Atmospheric mass density...
Loading historical data...
Loading historical data...
Loading historical data...
Loading historical data...
Loading historical data...
Loading historical data...
Loading historical data...

Documentation

Showing up to 5 results
|